TimePDT,TemperatureF,Dew PointF,Humidity,Sea Level PressureIn,VisibilityMPH,Wind Direction,Wind SpeedMPH,Gust SpeedMPH,PrecipitationIn,Events,Conditions,WindDirDegrees,DateUTC
1:53 AM,60.1,48.9,67,30.00,10.0,Calm,Calm,-,N/A,,Overcast,0,2013-05-07 08:53:00
2:53 AM,57.9,48.9,72,30.00,10.0,SE,3.5,-,N/A,,Partly Cloudy,140,2013-05-07 09:53:00
3:53 AM,57.0,48.9,74,30.00,10.0,East,3.5,-,N/A,,Overcast,80,2013-05-07 10:53:00
4:53 AM,55.0,48.0,77,29.99,10.0,NE,4.6,-,N/A,,Scattered Clouds,50,2013-05-07 11:53:00
5:53 AM,55.0,48.0,77,30.01,10.0,NNE,6.9,-,N/A,,Mostly Cloudy,30,2013-05-07 12:53:00
6:53 AM,57.9,48.9,72,30.03,10.0,East,3.5,-,N/A,,Overcast,100,2013-05-07 13:53:00
7:53 AM,57.9,48.9,72,30.04,9.0,Calm,Calm,-,N/A,,Overcast,0,2013-05-07 14:53:00
8:53 AM,61.0,51.1,70,30.06,10.0,SE,4.6,-,N/A,,Overcast,140,2013-05-07 15:53:00
9:53 AM,64.0,50.0,60,30.06,10.0,Variable,3.5,-,N/A,,Scattered Clouds,0,2013-05-07 16:53:00
10:53 AM,66.0,50.0,56,30.06,10.0,NW,5.8,-,N/A,,Clear,310,2013-05-07 17:53:00
11:53 AM,68.0,48.9,50,30.06,10.0,West,8.1,-,N/A,,Clear,260,2013-05-07 18:53:00
12:53 PM,70.0,48.9,47,30.05,10.0,West,11.5,21.9,N/A,,Clear,260,2013-05-07 19:53:00
1:53 PM,69.1,48.9,49,30.04,10.0,West,12.7,-,N/A,,Partly Cloudy,280,2013-05-07 20:53:00
2:53 PM,71.1,46.9,42,30.03,10.0,WNW,11.5,-,N/A,,Clear,290,2013-05-07 21:53:00
3:53 PM,70.0,45.0,41,30.02,10.0,West,13.8,-,N/A,,Clear,270,2013-05-07 22:53:00
4:53 PM,68.0,50.0,52,30.03,10.0,West,18.4,-,N/A,,Clear,280,2013-05-07 23:53:00
5:53 PM,63.0,52.0,67,30.04,10.0,West,13.8,-,N/A,,Clear,280,2013-05-08 00:53:00
6:53 PM,61.0,52.0,72,30.05,10.0,WNW,12.7,-,N/A,,Clear,300,2013-05-08 01:53:00
7:26 PM,57.2,51.8,82,30.04,9.0,WNW,9.2,-,N/A,,Partly Cloudy,290,2013-05-08 02:26:00
7:53 PM,55.9,51.1,84,30.07,9.0,West,8.1,-,N/A,,Scattered Clouds,280,2013-05-08 02:53:00
8:04 PM,55.4,51.8,88,30.05,9.0,WNW,5.8,-,N/A,,Mostly Cloudy,290,2013-05-08 03:04:00
8:53 PM,55.0,51.1,86,30.08,7.0,WNW,8.1,-,N/A,,Overcast,290,2013-05-08 03:53:00
9:18 PM,53.6,51.8,94,30.06,7.0,West,5.8,-,N/A,,Overcast,260,2013-05-08 04:18:00
9:53 PM,54.0,52.0,93,30.10,8.0,West,6.9,-,N/A,,Overcast,270,2013-05-08 04:53:00
10:53 PM,54.0,51.1,90,30.11,8.0,NNW,6.9,-,N/A,,Overcast,330,2013-05-08 05:53:00
11:53 PM,54.0,51.1,90,30.10,7.0,WNW,4.6,-,N/A,,Overcast,290,2013-05-08 06:53:00